Location: ?????????
(54.7630°N, 39.4991°E)
Time: 18:57:07
(UTC+00:00)

Okean-O - Pass Details

Date: 14 April 2026
Orbit: 627 x 629 km, 97.9° (Epoch: 19 May)

Event Time Altitude Azimuth Distance (km) Brightness Sun altitude
Exits shadow 18:05:41 14° 169° (S) 1,750 4.4 -13.6°
Maximum altitude 18:09:25 79° 255° (WSW) 649 2.7 -14.0°
Drops below altitude 10° 18:13:50 10° 343° (NNW) 2,023 6.1 -14.5°
Sets 18:16:03 0° 345° (NNW) 2,935 7.1 -14.8°
